Flag for Greenland Weather past 2 weeks in Ilulissat, Greenland

Now
21 °F

Light snow. Overcast.


Feels Like: 6 °F
Forecast: 20 / 31 °F
Wind: 18 mph from Southeast

Location: Jacobshavn Lufthavn

Current Time: Apr 28, 2015 at 2:18:58 AM

Latest Report: Apr 28, 2015 at 12:50 AM


Visibility: 2 mi

Pressure: 30.33 "Hg

Humidity: 80%

Dew point: 16 °F

Location of IlulissatLocation

Historic Weather in Ilulissat — Graph

°F

Ilulissat temperature yesterday

Maximum temperature yesterday: 23 °F (at 12:50 PM)
Minimum temperature yesterday: 16 °F (at 3:50 AM)
Average temperature yesterday: 20 °F

Past Weeks' High & Low Weather Summary

 TemperatureHumidityPressure
High23 °F (Apr 14, 9:50 AM)93% (Apr 14, 1:50 PM)30.66 "Hg (Apr 14, 1:50 PM)
Low-2 °F (Apr 19, 5:50 AM)38% (Apr 24, 12:50 PM)28.88 "Hg (Apr 15, 8:50 AM)
Average12 °F67%29.94 "Hg
* Reported Apr 13 2:20 AM — Apr 28 12:50 AM, Ilulissat, Weather by CustomWeather, © 2015

Note: Actual official high and low records may vary slightly from our data, if they occured in-between our weather recording intervals... More about our weather records

Advertising

Ilulissat weather history for previous 24 hours

 ConditionsComfort  
Time TempWeatherWind HumidityBarometerVisibility
12:50 AM
Tue, Apr 28
21 °FLight snow. Overcast.18 mph80%30.33 "Hg2 mi
11:50 PM
Mon, Apr 27
21 °FLight snow. Overcast.15 mph74%30.36 "HgN/A
10:50 PM21 °FLight snow. Overcast.9 mph80%30.36 "HgN/A
9:50 PM23 °FSnow flurries. Partly sunny.12 mph74%30.36 "HgN/A
8:50 PM21 °FSnow flurries. Partly sunny.18 mph80%30.33 "Hg4 mi
7:50 PM21 °FSnow flurries. Partly sunny.17 mph80%30.33 "Hg4 mi
6:50 PM23 °FSnow flurries. Broken clouds.13 mph74%30.33 "HgN/A
5:50 PM21 °FSnow flurries. Broken clouds.14 mph80%30.33 "Hg5 mi
4:50 PM21 °FSnow flurries. Broken clouds.10 mph80%30.33 "HgN/A
2:50 PM21 °FLight snow. Broken clouds.13 mph68%30.33 "HgN/A
1:50 PM21 °FLight snow. Broken clouds.13 mph68%30.30 "HgN/A
12:50 PM23 °FBroken clouds.14 mph58%30.30 "HgN/A
11:50 AM21 °FBroken clouds.14 mph63%30.30 "HgN/A
10:50 AM19 °FBroken clouds.14 mph63%30.33 "HgN/A
9:50 AM19 °FBroken clouds.13 mph63%30.33 "HgN/A
8:50 AM18 °FBroken clouds.13 mph68%30.33 "HgN/A
7:50 AM18 °FBroken clouds.13 mph62%30.33 "HgN/A
6:50 AM16 °FPartly sunny.15 mph67%30.33 "HgN/A
5:50 AM18 °FLight snow. Partly sunny.12 mph68%30.36 "HgN/A
4:50 AM16 °FPassing clouds.14 mph73%30.36 "HgN/A
3:50 AM16 °FPassing clouds.13 mph73%30.36 "HgN/A
2:50 AM18 °FLight snow. Partly cloudy.10 mph73%30.36 "Hg2 mi
Weather by CustomWeather, © 2015

See weather overviewHow to use our weather pages